Location: Newark
(44.1667°N, 8.2500°E)
Time: 11:34:54
(UTC+00:00)

Explorer 11/Cluster Stage 4 - Pass Details

Date: 20 December 2019
Orbit: 467 x 1259 km, 28.8° (Epoch: 29 January)

Event Time Altitude Azimuth Distance (km) Brightness Sun altitude
Rises 05:16:05 0° 222° (SW) 4,070 10.0 -17.5°
Reaches altitude 10° 05:19:45 10° 206° (SSW) 3,179 9.6 -16.9°
Maximum altitude 05:25:15 20° 164° (SSE) 2,540 9.6 -15.9°
Drops below altitude 10° 05:30:48 10° 121° (ESE) 3,207 11.0 -15.0°
Sets 05:34:31 0° 106° (ESE) 4,117 12.2 -14.3°
